This is the latest recevied weather packets stored in our database for station/object IW3HBX-3. If no packets are shown the sender has not sent any weather packets the latest 10 day(s).
| Time | Temp. | Humidity | Pressure | Rain* | Wind** | Luminosity | Snow |
|---|---|---|---|---|---|---|---|
| 1777894162 | 24.44° C | 50% | 1017.1 hPa | 0 mm | - | 829 W/m² | - |
| 1777893601 | 24.44° C | 48% | 1017.2 hPa | 0 mm | - | 733 W/m² | - |
| 1777893562 | 24.44° C | 48% | 1017.2 hPa | 0 mm | - | 733 W/m² | - |
| 1777893262 | 25° C | 49% | 1017.4 hPa | 0 mm | - | 809 W/m² | - |
| 1777892962 | 23.89° C | 50% | 1017.4 hPa | 0 mm | - | 834 W/m² | - |
| 1777892661 | 23.89° C | 50% | 1017.4 hPa | 0 mm | - | 870 W/m² | - |
| 1777892361 | 23.89° C | 50% | 1017.6 hPa | 0 mm | - | 783 W/m² | - |
| 1777891761 | 24.44° C | 48% | 1017.7 hPa | 0 mm | - | 843 W/m² | - |
| 1777891461 | 25° C | 47% | 1017.8 hPa | 0 mm | - | 764 W/m² | - |
| 1777891161 | 24.44° C | 47% | 1017.8 hPa | 0 mm | - | 718 W/m² | - |
| 1777890861 | 23.33° C | 48% | 1017.8 hPa | 0 mm | - | 674 W/m² | - |
| 1777890561 | 22.78° C | 50% | 1017.9 hPa | 0 mm | - | 654 W/m² | - |
| 1777889961 | 23.89° C | 49% | 1017.9 hPa | 0 mm | - | 652 W/m² | - |
| 1777889661 | 23.33° C | 49% | 1017.9 hPa | 0 mm | - | 654 W/m² | - |
| 1777889361 | 22.78° C | 51% | 1017.9 hPa | 0 mm | - | 740 W/m² | - |
| 1777889060 | 22.22° C | 52% | 1018.1 hPa | 0 mm | - | 774 W/m² | - |
| 1777888760 | 22.78° C | 50% | 1018 hPa | 0 mm | - | 812 W/m² | - |
| 1777888460 | 22.78° C | 51% | 1018 hPa | 0 mm | - | 774 W/m² | - |
| 1777888160 | 22.22° C | 51% | 1018 hPa | 0 mm | - | 740 W/m² | - |
| 1777887860 | 22.78° C | 50% | 1018 hPa | 0 mm | - | 709 W/m² | - |
| 1777887560 | 22.22° C | 51% | 1018 hPa | 0 mm | - | 726 W/m² | - |
| 1777887260 | 22.22° C | 51% | 1018 hPa | 0 mm | - | 750 W/m² | - |
| 1777886960 | 22.22° C | 51% | 1018.1 hPa | 0 mm | - | 749 W/m² | - |
| 1777886660 | 21.67° C | 52% | 1018.1 hPa | 0 mm | - | 692 W/m² | - |
| 1777886360 | 21.67° C | 52% | 1018.2 hPa | 0 mm | - | 530 W/m² | - |
* Rain latest hour (hover to see other rain measurements)
** Current wind speed in m/s (hover to see current wind gust speed)